Weather History for KRSL - April, 2014

Change the Weather History Date:

Monday, April 14, 2014

  Actual Average Record
Temperature  
Mean Temperature 39 °F -  
Max Temperature 50 °F 65 °F 91 °F (2002)
Min Temperature 30 °F 40 °F 25 °F (1983)
Degree Days  
Heating Degree Days 26    
Moisture  
Dew Point 16 °F    
Average Humidity 44    
Maximum Humidity 64    
Minimum Humidity 19    
Precipitation  
Precipitation 0.00 in - - ()
Sea Level Pressure  
Sea Level Pressure 30.21 in    
Wind  
Wind Speed 21 mph (NNW)    
Max Wind Speed 29 mph    
Max Gust Speed 39 mph    
Visibility 10 miles    
Events      
Averages and records for this station are not official NWS values.
T = Trace of Precipitation, MM = Missing Value Source: NWS Daily Summary

Daily Weather History Graph

Daily Weather History Graph

Search for Another Location

Airport or City:

Trip Planner

Search our weather history database for the weather conditions in past years. The results will help you decide how hot, cold, wet, or windy it might be!

Date:

Astronomy

Apr. 14, 2014 Rise Set
Actual Time 7:00 AM CDT 8:11 PM CDT
Civil Twilight 6:32 AM CDT 8:38 PM CDT
Nautical Twilight 5:59 AM CDT 9:11 PM CDT
Astronomical Twilight 5:25 AM CDT 9:46 PM CDT
Moon 7:51 PM CDT (4/14) 6:32 AM CDT (4/14)
Length of Visible Light 14h 06m
Length of Day
13h 11m
Full, 100% of the Moon is Illuminated
Apr 14
Full
Apr 15
Full
Apr 22
Last Quarter
Apr 29
New
May 6
First Quarter

Hourly Weather History & Observations

Time (CDT) Temp. Windchill Dew Point Humidity Pressure Visibility Wind Dir Wind Speed Gust Speed Precip Events Conditions
12:53 AM 35.1 °F 23.8 °F 24.1 °F 64% 30.03 in 10.0 mi North 20.7 mph 31.1 mph N/A   Overcast
1:53 AM 35.1 °F 22.5 °F 24.1 °F 64% 30.09 in 10.0 mi North 26.5 mph 33.4 mph N/A   Overcast
2:53 AM 35.1 °F 23.8 °F 21.9 °F 59% 30.10 in 10.0 mi North 20.7 mph 36.8 mph N/A   Overcast
3:53 AM 33.8 °F 21.3 °F 21.2 °F 60% 30.08 in 10.0 mi North 24.2 mph 34.5 mph N/A   Overcast
4:53 AM 32.0 °F 17.9 °F 19.9 °F 61% 30.17 in 10.0 mi North 28.8 mph 39.1 mph N/A   Overcast
5:53 AM 32.0 °F 19.2 °F 19.9 °F 61% 30.18 in 10.0 mi North 23.0 mph 34.5 mph N/A   Overcast
6:53 AM 30.2 °F 18.9 °F 19.4 °F 64% 30.17 in 10.0 mi North 16.1 mph - N/A   Overcast
7:53 AM 30.9 °F 17.5 °F 17.1 °F 57% 30.24 in 10.0 mi NNW 24.2 mph 31.1 mph N/A   Overcast
8:53 AM 30.9 °F 18.7 °F 17.1 °F 57% 30.27 in 10.0 mi North 19.6 mph - N/A   Overcast
9:53 AM 33.1 °F 20.1 °F 14.0 °F 46% 30.29 in 10.0 mi North 25.3 mph 31.1 mph N/A   Overcast
10:53 AM 37.0 °F 25.4 °F 12.9 °F 37% 30.30 in 10.0 mi NNW 25.3 mph 34.5 mph N/A   Mostly Cloudy
11:53 AM 39.9 °F 29.5 °F 12.0 °F 32% 30.30 in 10.0 mi North 24.2 mph - N/A   Clear
12:53 PM 42.8 °F 33.3 °F 10.4 °F 27% 30.26 in 10.0 mi North 24.2 mph 33.4 mph N/A   Clear
1:53 PM 45.0 °F 36.0 °F 10.9 °F 25% 30.28 in 10.0 mi North 25.3 mph 31.1 mph N/A   Clear
2:53 PM 46.0 °F 39.3 °F 12.9 °F 26% 30.26 in 10.0 mi NNW 16.1 mph 31.1 mph N/A   Partly Cloudy
3:53 PM 48.0 °F - 12.0 °F 24% 30.23 in 10.0 mi NNW 16.1 mph 25.3 mph N/A   Scattered Clouds
4:53 PM 48.9 °F - 9.0 °F 20% 30.21 in 10.0 mi NW 16.1 mph 29.9 mph N/A   Scattered Clouds
5:53 PM 48.9 °F - 8.1 °F 19% 30.20 in 10.0 mi WNW 16.1 mph - N/A   Clear
6:53 PM 46.9 °F - 10.9 °F 23% 30.19 in 10.0 mi NW 18.4 mph 26.5 mph N/A   Clear
7:53 PM 44.1 °F 38.1 °F 15.1 °F 31% 30.19 in 10.0 mi WNW 11.5 mph - N/A   Clear
8:53 PM 39.0 °F 32.8 °F 18.0 °F 43% 30.21 in 10.0 mi WNW 9.2 mph - N/A   Clear
9:53 PM 36.0 °F 29.0 °F 19.0 °F 50% 30.23 in 10.0 mi WNW 9.2 mph - N/A   Clear
10:53 PM 33.1 °F 26.9 °F 18.0 °F 54% 30.23 in 10.0 mi West 6.9 mph - N/A   Clear
11:53 PM 33.1 °F 28.7 °F 19.0 °F 56% 30.23 in 10.0 mi West 4.6 mph - N/A   Clear